This is the latest recevied weather packets stored in our database for station/object K2RMB. If no packets are shown the sender has not sent any weather packets the latest 10 day(s).
| Time | Temp. | Humidity | Pressure | Rain* | Wind** | Luminosity | Snow |
|---|---|---|---|---|---|---|---|
| 1777433306 | 10.56° C | 50% | 1017.8 hPa | 0 mm | - | 0 W/m² | - |
| 1777432703 | 10.56° C | 50% | 1018.1 hPa | 0 mm | - | 0 W/m² | - |
| 1777432399 | 11.11° C | 51% | 1018.1 hPa | 0 mm | - | 0 W/m² | - |
| 1777430269 | 12.22° C | 50% | 1018.4 hPa | 0 mm | - | 0 W/m² | - |
| 1777429668 | 12.78° C | 50% | 1018.4 hPa | 0 mm | - | 0 W/m² | - |
| 1777428451 | 12.78° C | 52% | 1018.1 hPa | 0 mm | - | 0 W/m² | - |
| 1777427540 | 13.33° C | 52% | 1018.1 hPa | 0 mm | - | 0 W/m² | - |
| 1777426022 | 14.44° C | 51% | 1018.1 hPa | 0 mm | - | 0 W/m² | - |
| 1777425717 | 14.44° C | 49% | 1018.1 hPa | 0 mm | - | 0 W/m² | - |
| 1777425412 | 14.44° C | 48% | 1018.1 hPa | 0 mm | - | 0 W/m² | - |
| 1777424500 | 15.56° C | 45% | 1018.1 hPa | 0 mm | - | 0 W/m² | - |
| 1777423894 | 15.56° C | 44% | 1017.8 hPa | 0 mm | - | 0 W/m² | - |
| 1777418428 | 17.78° C | 42% | 1017.4 hPa | 0 mm | - | 9 W/m² | - |
| 1777414492 | 18.89° C | 39% | 1017.8 hPa | 0 mm | - | 70 W/m² | - |
| 1777410856 | 19.44° C | 39% | 1018.1 hPa | 0 mm | - | 150 W/m² | - |
| 1777410255 | 19.44° C | 40% | 1018.1 hPa | 0 mm | - | 168 W/m² | - |
| 1777409950 | 20° C | 37% | 1017.8 hPa | 0 mm | - | 176 W/m² | - |
| 1777409341 | 20° C | 36% | 1017.8 hPa | 0 mm | - | 183 W/m² | - |
| 1777407217 | 20° C | 36% | 1018.4 hPa | 0 mm | - | 211 W/m² | - |
| 1777406607 | 20.56° C | 39% | 1018.8 hPa | 0 mm | - | 231 W/m² | - |
| 1777405092 | 20.56° C | 33% | 1018.8 hPa | 0 mm | - | 340 W/m² | - |
| 1777404786 | 21.11° C | 33% | 1019.2 hPa | 0 mm | - | 336 W/m² | - |
| 1777402665 | 21.11° C | 36% | 1019.5 hPa | 0 mm | - | 417 W/m² | - |
| 1777402364 | 21.67° C | 33% | 1019.2 hPa | 0 mm | - | 531 W/m² | - |
| 1777401149 | 22.22° C | 31% | 1019.5 hPa | 0 mm | - | 440 W/m² | - |
* Rain latest hour (hover to see other rain measurements)
** Current wind speed in m/s (hover to see current wind gust speed)